FENGYUN 1C DEB, 32456

Orbit data source: Space-Track

FENGYUN 1C DEB, 32456 is space debris in LEO originally from a launch on Mon, 10 May 1999 UTC launched from the Taiyaun Space Center, China (TSC). Fengyun 1C debris stems from the Chinese weather satellite Fengyun-1C, which was intentionally destroyed by a Chinese anti-satellite missile in 2007. This event dramatically increased the amount of space debris, with thousands of trackable fragments posing hazards to satellites and human spaceflight. The Fengyun 1C debris cloud has become a focal point in discussions about space sustainability and the need for international regulations to prevent the creation of new debris.

Loading next visibility...
Identifier
32456, 1999-025DBU
Orbit
LEO
Country
Flag of CNCN / PRC
Related business
Manufacturer
Unknown
Mission
Spacecraft
Bus & Motor
Unknown
Mass
Unknown
Launch date (UTC)
1999-05-10 (27 years ago)
Launch vehicle
Unknown
Launch site
Taiyaun Space Center, China (TSC)
Object type
Payload
Rocket body
Debris
Shape & HBR
Unknown shape, 0.1 m
Radar Cross Section
Small (<0.1 m²)

Expand to show TLE details & history
Last TLE update: 3 days ago

TLE from 3 days ago
0 FENGYUN 1C DEB
1 32456U 99025DBU 26162.37513747  .00000752  00000-0  10805-2 0  9999
2 32456 103.6722   8.5440 0373314 216.6428 140.8614 13.36026903630280
Epoch: 2026-06-11T09:00Z
TLE epoch observation values (Epoch: 2026-06-11T09:00:11.877Z)
Latitude
-0.00006°
Longitude
-26.22531°
Altitude
1,347.976 km
Speed
7.078 km/s
True Right ascension
00h 34m 10s
True Declination
0° 00' 00"
Sunlit
Object was in daylight at epoch
Visualization orbit readout
Latitude
Unknown
Longitude
Unknown
Altitude
Unknown
Speed
Unknown
Apparent Right ascension
Unknown
Apparent Declination
Unknown
Sunlit
N/A
Visualization observer readout
Local Sidereal Time
13:00:54
Azimuth
Unknown
Elevation
Unknown
Doppler factor
Unknown
Orbital elements
Apogee altitude
1,401.651 km
Perigee altitude
841.694 km
Semi-major axis
7,499.81 km
Eccentricity
0.03733
Inclination
103.6722°
RAAN
8.544°
Arg. of periapsis
216.6428°
True anomaly
143.46625°
Mean anomaly
140.8614°
Eccentric anomaly
142.17316°
Mean motion
3.3417 °/min
Orbital period
107.73 mins
BSTAR
0.0010805
Loading maneuver chart data...
Computing Atmospheric mass density...
Loading historical data...
Loading historical data...
Loading historical data...
Loading historical data...
Loading historical data...
Loading historical data...
Loading historical data...

Documentation

Showing up to 5 results
|